EN

Hourly Weather Brilek

Today, 16 April, Friday

Time Temperature Precipitation Wind Pressure Humidity
00:00 +4°C° 0 mm 6 mps 750 mmHg 91%
01:00 +4°C° 0 mm 6 mps 750 mmHg 92%
02:00 +4°C° 0 mm 6 mps 749 mmHg 92%
03:00 +4°C° 0 mm 6 mps 749 mmHg 92%
04:00 +4°C° 0 mm 6 mps 749 mmHg 92%
05:00 +4°C° 0 mm 6 mps 749 mmHg 92%
06:00 +4°C° 0.4 mm 6 mps 749 mmHg 92%
07:00 +4°C° 0.4 mm 6 mps 749 mmHg 91%
08:00 +4°C° 0.4 mm 7 mps 749 mmHg 90%
09:00 +4°C° 0.1 mm 6 mps 750 mmHg 90%
10:00 +5°C° 0.1 mm 6 mps 750 mmHg 89%
11:00 +7°C° 0.1 mm 6 mps 750 mmHg 88%
12:00 +8°C° 0 mm 6 mps 750 mmHg 85%
13:00 +8°C° 0 mm 6 mps 751 mmHg 82%
14:00 +9°C° 0 mm 6 mps 751 mmHg 80%
15:00 +9°C° 0 mm 6 mps 751 mmHg 80%
16:00 +9°C° 0 mm 6 mps 751 mmHg 81%
17:00 +9°C° 0 mm 6 mps 751 mmHg 82%
18:00 +9°C° 0 mm 6 mps 751 mmHg 83%
19:00 +9°C° 0 mm 6 mps 751 mmHg 85%
20:00 +8°C° 0 mm 5 mps 752 mmHg 86%
21:00 +8°C° 0.6 mm 5 mps 752 mmHg 88%
22:00 +8°C° 0.6 mm 5 mps 752 mmHg 90%
23:00 +8°C° 0.6 mm 5 mps 752 mmHg 92%

Tomorrow, 17 April, Saturday

Time Temperature Precipitation Wind Pressure Humidity
00:00 +8°C° 0.2 mm 5 mps 752 mmHg 92%
01:00 +8°C° 0.2 mm 5 mps 752 mmHg 92%
02:00 +7°C° 0.2 mm 5 mps 752 mmHg 92%
03:00 +7°C° 0 mm 5 mps 752 mmHg 92%
04:00 +7°C° 0 mm 5 mps 752 mmHg 92%
05:00 +7°C° 0 mm 5 mps 752 mmHg 92%
06:00 +7°C° 0 mm 5 mps 753 mmHg 90%
07:00 +8°C° 0 mm 5 mps 753 mmHg 89%
08:00 +8°C° 0 mm 5 mps 753 mmHg 87%
09:00 +9°C° 0 mm 5 mps 754 mmHg 83%
10:00 +10°C° 0 mm 5 mps 754 mmHg 78%
11:00 +12°C° 0 mm 5 mps 754 mmHg 74%
12:00 +12°C° 0.1 mm 5 mps 754 mmHg 72%
13:00 +13°C° 0.1 mm 5 mps 754 mmHg 69%
14:00 +13°C° 0.1 mm 5 mps 754 mmHg 67%
15:00 +13°C° 0 mm 5 mps 754 mmHg 67%
16:00 +13°C° 0 mm 5 mps 754 mmHg 67%
17:00 +13°C° 0 mm 5 mps 754 mmHg 68%
18:00 +12°C° 0 mm 5 mps 754 mmHg 71%
19:00 +12°C° 0 mm 4 mps 754 mmHg 74%
20:00 +11°C° 0 mm 4 mps 754 mmHg 77%
21:00 +11°C° 0 mm 4 mps 754 mmHg 78%
22:00 +11°C° 0 mm 4 mps 754 mmHg 78%
23:00 +10°C° 0 mm 4 mps 754 mmHg 79%

Day after tomorrow, 18 April, Sunday

Time Temperature Precipitation Wind Pressure Humidity
00:00 +10°C° 0 mm 4 mps 754 mmHg 81%
01:00 +8°C° 0 mm 4 mps 754 mmHg 82%
02:00 +7°C° 0 mm 4 mps 754 mmHg 84%
03:00 +6°C° 0 mm 4 mps 754 mmHg 85%
04:00 +5°C° 0 mm 4 mps 754 mmHg 85%
05:00 +5°C° 0 mm 4 mps 754 mmHg 86%
06:00 +5°C° 0 mm 4 mps 754 mmHg 79%
07:00 +6°C° 0 mm 4 mps 754 mmHg 72%
08:00 +7°C° 0 mm 5 mps 755 mmHg 66%
09:00 +9°C° 0 mm 5 mps 755 mmHg 61%
10:00 +10°C° 0 mm 5 mps 754 mmHg 56%
11:00 +12°C° 0 mm 5 mps 754 mmHg 51%
12:00 +13°C° 0 mm 5 mps 754 mmHg 48%
13:00 +14°C° 0 mm 5 mps 754 mmHg 45%
14:00 +14°C° 0 mm 5 mps 754 mmHg 42%
15:00 +14°C° 0 mm 5 mps 754 mmHg 44%
16:00 +14°C° 0 mm 5 mps 754 mmHg 45%
17:00 +14°C° 0 mm 4 mps 754 mmHg 47%
18:00 +12°C° 0 mm 4 mps 754 mmHg 52%
19:00 +11°C° 0 mm 3 mps 755 mmHg 58%
20:00 +9°C° 0 mm 3 mps 755 mmHg 64%
21:00 +9°C° 0 mm 3 mps 755 mmHg 66%
22:00 +9°C° 0 mm 3 mps 755 mmHg 68%
23:00 +9°C° 0 mm 3 mps 755 mmHg 69%

19 April, Monday

Time Temperature Precipitation Wind Pressure Humidity
00:00 +9°C° 0 mm 3 mps 756 mmHg 73%
01:00 +8°C° 0 mm 3 mps 756 mmHg 76%
02:00 +8°C° 0 mm 2 mps 756 mmHg 79%
03:00 +7°C° 0 mm 2 mps 756 mmHg 80%
04:00 +7°C° 0 mm 3 mps 756 mmHg 81%
05:00 +5°C° 0 mm 3 mps 756 mmHg 82%
06:00 +7°C° 0 mm 3 mps 756 mmHg 77%
07:00 +7°C° 0 mm 4 mps 756 mmHg 72%
08:00 +8°C° 0 mm 4 mps 756 mmHg 67%
09:00 +10°C° 0 mm 4 mps 756 mmHg 60%
10:00 +10°C° 0 mm 5 mps 756 mmHg 54%
11:00 +13°C° 0 mm 5 mps 755 mmHg 47%
12:00 +13°C° 0 mm 5 mps 755 mmHg 48%
13:00 +13°C° 0 mm 4 mps 755 mmHg 49%
14:00 +12°C° 0 mm 4 mps 755 mmHg 50%
15:00 +12°C° 0 mm 4 mps 755 mmHg 53%
16:00 +12°C° 0 mm 4 mps 755 mmHg 55%
17:00 +11°C° 0 mm 4 mps 755 mmHg 58%
18:00 +10°C° 0 mm 4 mps 755 mmHg 63%
19:00 +9°C° 0 mm 3 mps 755 mmHg 68%
20:00 +8°C° 0 mm 3 mps 755 mmHg 74%
21:00 +7°C° 0 mm 3 mps 754 mmHg 76%
22:00 +7°C° 0 mm 3 mps 754 mmHg 78%
23:00 +6°C° 0 mm 4 mps 754 mmHg 81%

20 April, Tuesday

Time Temperature Precipitation Wind Pressure Humidity
00:00 +7°C° 0 mm 3 mps 754 mmHg 82%
01:00 +7°C° 0 mm 3 mps 754 mmHg 83%
02:00 +5°C° 0 mm 3 mps 753 mmHg 84%
03:00 +5°C° 0 mm 4 mps 753 mmHg 84%
04:00 +5°C° 0 mm 4 mps 753 mmHg 83%
05:00 +5°C° 0 mm 4 mps 753 mmHg 83%
06:00 +6°C° 0 mm 5 mps 752 mmHg 79%
07:00 +6°C° 0 mm 5 mps 752 mmHg 75%
08:00 +7°C° 0 mm 6 mps 752 mmHg 71%
09:00 +7°C° 0 mm 6 mps 751 mmHg 68%
10:00 +8°C° 0 mm 6 mps 751 mmHg 64%
11:00 +8°C° 0 mm 6 mps 750 mmHg 61%
12:00 +9°C° 0 mm 6 mps 750 mmHg 58%
13:00 +9°C° 0 mm 6 mps 749 mmHg 56%
14:00 +10°C° 0 mm 6 mps 749 mmHg 53%
15:00 +9°C° 0 mm 6 mps 748 mmHg 54%
16:00 +9°C° 0 mm 6 mps 748 mmHg 56%
17:00 +9°C° 0 mm 6 mps 747 mmHg 57%
18:00 +8°C° 0 mm 5 mps 747 mmHg 60%
19:00 +7°C° 0 mm 5 mps 746 mmHg 62%
20:00 +6°C° 0 mm 5 mps 746 mmHg 65%
21:00 +5°C° 0 mm 5 mps 745 mmHg 66%
22:00 +5°C° 0 mm 5 mps 744 mmHg 68%
23:00 +5°C° 0 mm 5 mps 743 mmHg 69%

21 April, Wednesday

Time Temperature Precipitation Wind Pressure Humidity
00:00 +3°C° 0.2 mm 5 mps 743 mmHg 76%
01:00 +2°C° 0.2 mm 5 mps 743 mmHg 83%
02:00 +2°C° 0.2 mm 5 mps 742 mmHg 89%
03:00 +1°C° 0.7 mm 5 mps 742 mmHg 92%
04:00 +1°C° 0.7 mm 5 mps 741 mmHg 94%
05:00 +1°C° 0.7 mm 5 mps 741 mmHg 96%
06:00 +1°C° 0.2 mm 4 mps 741 mmHg 96%
07:00 +1°C° 0.2 mm 4 mps 741 mmHg 97%
08:00 +1°C° 0.2 mm 4 mps 740 mmHg 97%
09:00 +1°C° 0.2 mm 4 mps 740 mmHg 97%
10:00 +1°C° 0.2 mm 4 mps 740 mmHg 96%
11:00 +1°C° 0.2 mm 4 mps 740 mmHg 96%
12:00 +1°C° 0.1 mm 4 mps 740 mmHg 95%
13:00 +1°C° 0.1 mm 4 mps 740 mmHg 95%
14:00 +3°C° 0.1 mm 4 mps 741 mmHg 94%
15:00 +3°C° 0 mm 4 mps 741 mmHg 92%
16:00 +3°C° 0 mm 4 mps 741 mmHg 90%
17:00 +3°C° 0 mm 4 mps 741 mmHg 88%
18:00 +3°C° 0 mm 3 mps 742 mmHg 89%
19:00 +3°C° 0 mm 3 mps 742 mmHg 90%
20:00 +3°C° 0 mm 3 mps 742 mmHg 91%
21:00 +2°C° 0 mm 3 mps 742 mmHg 93%
22:00 +3°C° 0 mm 2 mps 743 mmHg 94%
23:00 +3°C° 0 mm 2 mps 743 mmHg 96%
Show more

We Need Your Consent

Meteoprog and our Service Providers may store and access personal data such as cookies, device identifiers or other similar technologies on your device and process such data to personalise content and ads, as well as provide social media features and to analyse the traffic.

  • Store and/or access information on your device

    Cookies, device identifiers or other information can be stored or accessed on your device for the purposes indicated above.

  • Personalised ads and content, ad and content measurement, audience insights, and products development

    Ads and content can be personalised based on a profile. More data can be added to better personalise ads and content. Ad and content performance can be measured. Insights about the audience who saw the ads and content can be derived. Such data can be used to develop or improve user’s experience, systems and software.

By clicking ‘I Agree’ you will allow the use of indicated cookies, device identifiers, web beacons or other similar technologies. Your settings can be changed in the browser on your device.

For certain purposes, legitimate interests may be relied on, rather than consent. You can read more about this in our Privacy and Cookie Policy.